Retour au catalogue

YUNHAI 2-2E

ActifMétéoLEO
NORAD 59284·PAYLOAD·🇨🇳 China

Lancé Mar 21, 2024 depuis Jiuquan Satellite Launch Center

Loading…

Prochains Passages (prochaines 24 heures)

TLE

FraisSource: Space-Track

Époque: Sep 14, 2026, 21:54 UTC

1 59284U 24052E   26257.91314731 -.00000089  00000-0  29041-4 0  9990
2 59284  50.0110 302.5649 0011690  12.1751 347.9444 14.27990219119752

Suivez YUNHAI 2-2E en temps réel avec AllMySat

Download on the App Store